Location: Unspecified
(52.4292°N, 19.3359°E)
Time: 10:28:53
(UTC+02:00)

BlueWalker 3 - Visible Passes

Search period start: 19 April 2025 00:00
Search period end: 29 April 2025 00:00
Orbit: 465 x 473 km, 53.2° (Epoch: 18 April)

Date Brightness Start Highest point End Pass type
(mag) Time Alt. Az. Time Alt. Az. Time Alt. Az.
19 Apr 3.5 04:07:38 14° S 04:09:57 23° SE 04:12:57 10° E visible
20 Apr 3.6 03:37:18 17° S 03:38:35 21° SE 03:41:23 10° E visible
21 Apr 3.7 03:06:54 18° SE 03:07:11 18° SE 03:09:46 10° E visible
21 Apr 2.0 04:40:53 10° WSW 04:44:27 63° SSE 04:48:06 10° ENE visible
22 Apr 4.0 02:36:27 15° SE 02:36:27 15° SE 02:38:05 10° E visible
22 Apr 2.1 04:10:25 18° SW 04:12:59 57° SSE 04:16:37 10° ENE visible
23 Apr 4.5 02:05:56 11° ESE 02:05:56 11° ESE 02:06:18 10° ESE visible
23 Apr 2.1 03:39:54 28° SW 03:41:29 51° SSE 03:45:05 10° ENE visible
24 Apr 2.2 03:09:20 40° S 03:10:00 45° SSE 03:13:33 10° E visible
24 Apr 1.9 04:43:59 10° W 04:47:40 81° N 04:51:23 10° E visible
25 Apr 2.5 02:38:43 40° SE 02:38:43 40° SE 02:41:58 10° E visible
25 Apr 1.8 04:12:40 12° W 04:16:07 84° N 04:19:50 10° E visible
26 Apr 3.1 02:08:03 29° ESE 02:08:03 29° ESE 02:10:23 10° E visible
26 Apr 1.8 03:42:01 19° W 03:44:33 88° NNW 03:48:15 10° ENE visible
27 Apr 3.8 01:37:21 20° E 01:37:21 20° E 01:38:46 10° E visible
27 Apr 1.7 03:11:18 31° WSW 03:12:58 88° S 03:16:41 10° ENE visible
28 Apr 4.3 01:06:36 13° E 01:06:36 13° E 01:07:07 10° E visible
28 Apr 1.6 02:40:33 52° WSW 02:41:22 83° SSE 02:45:04 10° ENE visible
28 Apr 1.9 04:15:32 10° W 04:19:13 79° N 04:22:55 10° E visible
